Date String (YYYY-MM-DD hh:mm:ss) UTC,Instrument flags,Ambient pressure (hPa),Sample flow (lpm),Bypass flow (lpm),Sample temperature (°C),Ambient temperature (°C),ASC tube jacket temperature (°C),LED temperature (°C),Box temperature (°C),Sample RH (%),Span deviation,Mass concentration (μg/m³),Mass concentration (μg/m³),Mass concentration (μg/m³)
DateTimeUTC,F1_M11,P_M11,Q1_M11,Q2_M11,T1_M11,T2_M11,T3_M11,T4_M11,T5_M11,U1_M11,ZSPAN_M11,X0_M11,X2_M11,X1_M11
2021-09-30 15:00:00,,0834.3,5.02,0.00,27.3,26.5,00.0,36.3,29.1,23.4,-002.0,0008.73,0005.40,0005.10
2021-09-30 15:01:00,,0834.3,5.00,0.00,27.3,26.5,00.0,36.3,29.1,23.2,-002.0,0008.70,0005.38,0005.10
2021-09-30 15:02:00,,0834.3,5.00,0.00,27.3,26.5,00.0,36.3,29.1,23.2,-002.1,0008.75,0005.37,0005.11
2021-09-30 15:03:00,,0834.3,5.01,0.00,27.3,26.5,00.0,36.3,29.1,23.3,-002.0,0008.96,0005.37,0005.11
2021-09-30 15:04:00,,0834.3,4.99,0.00,27.3,26.5,00.0,36.3,29.2,23.4,-001.7,0008.99,0005.36,0005.11
2021-09-30 15:05:00,,0834.3,5.01,0.00,27.3,26.5,00.0,36.3,29.2,23.3,-001.6,0009.04,0005.34,0005.10
2021-09-30 15:06:00,,0834.3,4.99,0.00,27.3,26.5,00.0,36.3,29.1,23.3,-001.2,0009.19,0005.34,0005.09
2021-09-30 15:07:00,,0834.3,5.01,0.00,27.3,26.5,00.0,36.3,29.1,23.3,-001.0,0009.23,0005.34,0005.09
2021-09-30 15:08:00,,0834.3,5.00,0.00,27.3,26.5,00.0,36.3,29.1,23.2,-001.2,0009.21,0005.36,0005.09
2021-09-30 15:09:00,,0834.3,5.02,0.00,27.3,26.5,00.0,36.3,29.1,23.4,-001.0,0009.08,0005.38,0005.10
2021-09-30 15:10:00,,0834.3,5.00,0.00,27.3,26.5,00.0,36.3,29.1,23.5,-001.1,0009.03,0005.41,0005.11
2021-09-30 15:11:00,,0834.3,4.99,0.00,27.3,26.5,00.0,36.3,29.1,23.3,-000.8,0009.37,0005.39,0005.10
2021-09-30 15:12:00,,0834.3,5.01,0.00,27.3,26.5,00.0,36.3,29.1,23.3,-000.7,0009.05,0005.40,0005.10
2021-09-30 15:13:00,,0834.3,5.00,0.00,27.3,26.5,00.0,36.3,29.1,23.2,-000.6,0008.96,0005.40,0005.09
2021-09-30 15:14:00,,0834.3,5.00,0.00,27.3,26.5,00.0,36.3,29.1,23.1,-000.5,0008.84,0005.42,0005.09
2021-09-30 15:15:00,,0834.3,4.99,0.00,27.3,26.5,00.0,36.3,29.1,23.3,-000.6,0008.82,0005.42,0005.09
2021-09-30 15:16:00,,0834.4,5.00,0.00,27.3,26.5,00.0,36.3,29.1,23.4,-000.6,0008.80,0005.43,0005.08
2021-09-30 15:17:00,,0834.4,5.01,0.00,27.3,26.6,00.0,36.3,29.1,23.3,-000.9,0009.14,0005.46,0005.09
2021-09-30 15:18:00,,0834.4,4.99,0.00,27.3,26.6,00.0,36.3,29.2,23.3,-001.5,0009.29,0005.46,0005.12
2021-09-30 15:19:00,,0834.4,5.00,0.00,27.3,26.6,00.0,36.3,29.2,23.1,-001.7,0009.32,0005.46,0005.14
2021-09-30 15:20:00,,0834.4,5.01,0.00,27.3,26.6,00.0,36.3,29.2,22.9,-001.9,0009.44,0005.47,0005.15
2021-09-30 15:21:00,,0834.4,5.01,0.00,27.3,26.6,00.0,36.4,29.2,22.9,-002.0,0009.59,0005.48,0005.16
2021-09-30 15:22:00,,0834.4,5.00,0.00,27.3,26.6,00.0,36.4,29.2,22.8,-002.1,0009.25,0005.51,0005.17
2021-09-30 15:23:00,,0834.4,4.99,0.00,27.3,26.6,00.0,36.4,29.1,22.9,-002.3,0009.10,0005.51,0005.18
2021-09-30 15:24:00,,0834.5,5.00,0.00,27.3,26.6,00.0,36.4,29.1,23.0,-002.3,0009.70,0005.53,0005.20
2021-09-30 15:25:00,,0834.5,5.00,0.00,27.3,26.6,00.0,36.4,29.1,23.1,-002.6,0009.77,0005.53,0005.21
2021-09-30 15:26:00,,0834.5,5.00,0.00,27.3,26.6,00.0,36.4,29.1,23.3,-002.4,0009.70,0005.54,0005.23
2021-09-30 15:27:00,,0834.5,5.00,0.00,27.3,26.6,00.0,36.4,29.1,23.3,-002.4,0009.70,0005.56,0005.25
2021-09-30 15:28:00,,0834.5,5.00,0.00,27.4,26.6,00.0,36.4,29.2,23.0,-002.4,0009.19,0005.55,0005.26
2021-09-30 15:29:00,,0834.5,5.01,0.00,27.4,26.6,00.0,36.4,29.2,23.0,-002.4,0009.44,0005.59,0005.27
2021-09-30 15:30:00,,0834.5,4.99,0.00,27.3,26.6,00.0,36.4,29.2,22.9,-002.3,0009.78,0005.60,0005.28
2021-09-30 15:31:00,,0834.6,5.01,0.00,27.3,26.6,00.0,36.4,29.2,22.8,-002.2,0009.70,0005.62,0005.29
2021-09-30 15:32:00,,0834.6,5.00,0.00,27.3,26.6,00.0,36.4,29.1,22.7,-002.0,0009.56,0005.63,0005.31
2021-09-30 15:33:00,,0834.6,5.01,0.00,27.3,26.5,00.0,36.4,29.1,22.7,-001.9,0009.53,0005.62,0005.33
2021-09-30 15:34:00,,0834.6,4.98,0.00,27.3,26.5,00.0,36.4,29.1,22.8,-001.9,0009.57,0005.64,0005.34
2021-09-30 15:35:00,,0834.6,5.00,0.00,27.3,26.5,00.0,36.4,29.1,22.9,-002.0,0009.14,0005.66,0005.35
2021-09-30 15:36:00,,0834.6,5.00,0.00,27.3,26.5,00.0,36.4,29.1,22.8,-001.6,0009.13,0005.71,0005.37
2021-09-30 15:37:00,,0834.6,5.01,0.00,27.3,26.5,00.0,36.4,29.1,22.7,-001.4,0009.69,0005.75,0005.40
2021-09-30 15:38:00,,0834.7,5.01,0.00,27.3,26.5,00.0,36.4,29.1,22.6,-001.2,0010.18,0005.78,0005.41
2021-09-30 15:39:00,,0834.6,4.99,0.00,27.3,26.5,00.0,36.4,29.1,22.7,-001.4,0010.28,0005.84,0005.44
2021-09-30 15:40:00,,0834.6,5.00,0.00,27.3,26.5,00.0,36.4,29.1,22.7,-001.2,0010.11,0005.84,0005.45
2021-09-30 15:41:00,,0834.6,5.00,0.00,27.3,26.5,00.0,36.4,29.1,22.7,-001.0,0009.73,0005.85,0005.46
2021-09-30 15:42:00,,0834.5,5.01,0.00,27.3,26.5,00.0,36.4,29.2,22.8,-000.9,0009.77,0005.86,0005.47
2021-09-30 15:43:00,,0834.5,5.01,0.00,27.3,26.5,00.0,36.4,29.1,22.9,-001.4,0009.97,0005.90,0005.48
2021-09-30 15:44:00,,0834.5,5.00,0.00,27.3,26.5,00.0,36.4,29.1,23.0,-001.0,0010.03,0005.92,0005.50
2021-09-30 15:45:00,,0834.5,4.99,0.00,27.3,26.5,00.0,36.4,29.1,22.9,-000.6,0010.02,0005.97,0005.54
2021-09-30 15:46:00,,0834.5,5.00,0.00,27.3,26.5,00.0,36.3,29.1,23.1,-000.2,0009.95,0005.99,0005.57
2021-09-30 15:47:00,,0834.5,5.00,0.00,27.3,26.5,00.0,36.3,29.1,23.0,-000.3,0009.86,0005.97,0005.59
2021-09-30 15:48:00,,0834.6,5.00,0.00,27.2,26.4,00.0,36.3,29.0,22.9,-000.5,0009.40,0005.98,0005.60
2021-09-30 15:49:00,,0834.6,5.00,0.00,27.2,26.4,00.0,36.3,29.0,22.8,-000.6,0008.99,0006.00,0005.62
2021-09-30 15:50:00,,0834.6,5.00,0.00,27.2,26.4,00.0,36.3,29.0,23.1,-000.4,0009.46,0005.99,0005.62
2021-09-30 15:51:00,,0834.6,4.99,0.00,27.2,26.4,00.0,36.3,29.0,23.0,-000.2,0009.65,0006.02,0005.64
2021-09-30 15:52:00,,0834.6,5.01,0.00,27.2,26.4,00.0,36.3,29.0,22.6,-000.2,0009.63,0006.03,0005.65
2021-09-30 15:53:00,,0834.6,5.01,0.00,27.2,26.4,00.0,36.3,29.0,22.5,-000.4,0009.59,0006.04,0005.66
2021-09-30 15:54:00,,0834.6,5.00,0.00,27.2,26.4,00.0,36.3,29.0,22.4,-000.3,0009.50,0006.02,0005.67
2021-09-30 15:55:00,,0834.6,5.00,0.00,27.1,26.3,00.0,36.3,28.9,22.4,-000.2,0009.45,0005.99,0005.65
2021-09-30 15:56:00,,0834.6,5.01,0.00,27.1,26.3,00.0,36.3,28.9,22.4,-000.7,0009.56,0005.97,0005.63
2021-09-30 15:57:00,,0834.6,5.01,0.00,27.1,26.3,00.0,36.2,28.9,22.5,-001.1,0010.10,0005.98,0005.62
2021-09-30 15:58:00,,0834.6,5.00,0.00,27.0,26.2,00.0,36.2,28.8,22.6,-001.4,0010.10,0005.97,0005.61
2021-09-30 15:59:00,,0834.6,5.00,0.00,27.0,26.2,00.0,36.2,28.8,22.7,-001.8,0010.06,0005.95,0005.60
